Dewpoint
14 13 13 13 13 12 16 15 17 19 21 22 21 21 23 23 25 24 25 26 27 28 29 29 30 35 34 29 26 26 28 27 26 28 29 28 30 30 31 31 33 34 34 36 35 35 33 33 32 31 27 26 24 23 23 22 21 20 19 20 19 17 17 17 16 15 12 12 13 13 13 13 14 14 12 12 12 12 12 11 11 13 10 8 5
11 10 10 13 14 16 14 12 18 17 18 21 22 19 20 22 23 22 23 24 26 27 30 29 29 30 32 33 38 35 29 27 28 28 28 28 30 30 30 30 31 32 32 33 34 34 33 32 32 30 26 25 24 23 22 24 22 19 19 19 20 17 16 17 16 12 11 7 8 8 10 10 13 13 12 12 11 11 10 10 9 10 8 6 4
10 10 13 13 15 14 15 17 14 13 17 19 21 20 19 20 20 20 23 24 25 27 29 28 29 31 31 30 30 37 37 33 32 32 29 29 29 30 30 30 30 30 31 31 32 32 32 32 31 30 26 25 24 22 22 22 21 20 18 18 18 18 16 18 15 11 6 8 3 2 2 2 9 10 11 10 10 10 9 8 9 8 6 4 5
11 10 9 10 10 11 11 12 12 17 16 13 18 21 19 19 20 21 22 24 25 26 27 28 30 30 32 32 32 28 27 31 36 38 35 35 38 35 34 33 32 30 30 30 30 32 31 31 31 29 26 24 24 23 21 20 21 20 18 18 18 16 14 16 15 13 6 8 6 1 -4 -7 -7 8 8 8 8 7 7 7 7 5 4 3 5
12 11 11 10 7 8 11 13 14 14 15 16 16 18 19 18 19 19 20 21 23 26 26 27 29 29 29 30 31 30 29 29 27 27 28 34 36 37 30 30 31 33 32 30 30 29 31 30 30 29 27 24 24 23 21 21 21 20 19 18 17 16 15 15 15 14 9 9 4 2 5 -1 -3 -7 4 5 6 6 7 6 7 4 4 3 2
13 12 11 9 10 12 9 7 8 14 14 15 16 18 20 18 17 18 18 20 22 23 26 27 27 27 28 28 28 28 28 28 27 27 29 27 27 28 30 29 29 30 31 31 29 28 29 30 30 30 28 24 25 23 22 21 20 20 19 18 17 16 15 14 15 15 12 10 5 3 3 6 8 -2 -2 -4 3 4 5 6 7 5 3 2 2
15 13 11 10 7 4 4 4 9 12 14 16 15 17 18 18 18 18 17 18 19 23 24 23 26 26 27 28 29 29 28 28 26 27 27 26 29 27 29 29 29 27 29 29 32 29 29 29 30 30 28 26 24 22 22 21 20 20 20 18 17 17 15 14 15 15 14 12 10 3 8 5 2 0 5 -4 -3 2 4 4 4 7 4 3 3
15 11 7 6 6 8 10 12 9 9 13 15 16 16 17 17 17 17 17 18 20 20 22 25 24 26 28 28 28 29 28 27 27 27 27 28 26 26 26 27 29 30 30 29 28 29 28 28 29 30 29 27 25 23 22 21 21 22 20 18 17 17 15 14 14 15 14 13 13 11 10 8 3 1 1 -2 2 7 1 3 4 5 2 2 2
14 13 11 10 9 9 8 6 8 11 15 15 15 15 15 15 17 18 17 17 16 18 19 19 23 25 26 27 28 29 29 30 29 28 28 28 27 26 26 26 27 27 28 30 29 28 28 28 29 29 28 27 25 25 23 22 20 19 19 18 17 17 16 15 14 14 14 13 13 12 11 9 7 4 1 1 -2 -1 -2 -1 -0 2 2 2 1
14 13 10 9 5 4 6 8 7 9 13 16 15 16 16 15 17 18 17 17 17 18 19 20 21 22 24 25 27 27 28 29 30 29 29 29 27 28 27 27 27 28 28 28 28 28 28 28 28 29 27 25 26 23 23 22 20 19 19 18 18 17 17 16 15 14 14 13 13 12 11 11 8 7 6 3 1 -2 -3 -3 -0 1 1 1 1
12 7 4 4 8 10 11 10 11 13 13 15 17 14 16 19 18 18 18 18 18 19 19 20 20 21 23 25 25 26 27 29 31 29 30 31 30 31 32 30 29 28 29 28 28 28 28 27 26 26 26 25 25 24 22 21 21 20 19 19 19 18 17 16 16 14 14 12 12 12 11 11 8 7 7 5 3 2 2 1 1 -0 -2 -1 3
13 11 9 7 7 8 9 10 11 12 13 15 17 18 19 18 18 18 18 19 19 18 19 20 19 20 22 22 23 24 25 27 28 28 29 30 30 32 34 35 34 33 32 31 30 29 29 27 26 26 26 25 24 23 23 22 21 21 20 19 19 18 18 17 16 15 13 12 11 11 11 11 9 8 7 7 6 5 3 3 3 3 4 1 2
8 4 5 10 11 10 10 10 11 13 14 16 18 20 19 17 17 18 18 18 18 18 19 19 20 20 20 21 22 24 25 25 25 27 29 29 29 29 31 32 34 33 34 33 34 33 31 28 27 25 24 24 24 23 23 23 22 21 20 19 19 18 18 17 16 16 14 13 11 11 10 10 9 8 8 8 8 7 5 5 7 6 2 5 6
-6 -4 5 10 10 10 11 11 12 14 15 17 19 18 18 17 17 18 18 18 18 19 19 19 20 20 20 20 21 22 23 24 25 26 27 28 28 28 29 30 29 30 32 33 34 34 34 31 28 26 25 24 24 23 23 23 23 22 21 20 19 19 18 17 16 16 15 14 12 11 10 9 9 8 7 8 8 8 10 12 12 7 3 2 4
4 6 7 8 9 9 11 11 13 15 17 19 19 18 17 17 18 18 18 18 18 19 20 20 20 20 20 21 21 22 22 23 23 25 25 26 26 26 27 27 27 28 29 31 33 33 33 32 30 28 27 25 24 24 24 23 23 22 22 21 20 19 18 17 16 16 15 13 12 11 11 10 9 8 7 8 8 9 10 14 12 11 7 5 4
2 4 7 7 9 11 12 13 13 15 18 20 17 17 18 18 18 19 19 18 18 19 20 19 19 18 21 22 22 22 23 23 24 24 23 24 24 25 25 26 27 28 28 29 31 31 31 30 29 29 29 28 25 24 24 24 23 22 22 21 20 20 18 17 17 16 16 14 12 12 11 10 9 9 7 8 9 12 12 12 13 12 8 7 6
-1 3 7 7 9 12 12 12 13 16 19 18 16 15 16 18 20 19 19 19 19 20 21 21 22 23 23 22 23 24 24 22 19 20 20 23 24 25 25 26 27 27 27 28 29 29 29 29 28 29 29 28 27 26 25 24 24 23 22 21 20 19 18 17 16 16 15 15 13 12 11 11 10 9 9 9 9 9 9 10 9 7 10 5 4
3 6 8 9 11 11 11 13 14 18 19 16 16 17 19 20 20 19 19 20 20 20 21 21 23 24 24 25 24 24 23 23 21 20 21 21 23 23 23 24 25 26 27 27 27 27 28 29 28 28 29 28 28 27 26 25 25 24 23 22 21 20 18 17 17 16 15 15 14 13 11 11 11 10 10 10 9 10 10 13 9 7 6 5 4
6 6 8 10 11 11 11 12 14 18 17 15 16 18 20 20 20 21 21 21 21 22 21 22 23 25 26 25 24 23 23 24 24 23 22 21 21 22 22 24 25 25 25 25 25 26 27 27 28 28 29 28 27 27 27 26 25 25 24 23 21 20 18 17 17 16 15 15 14 13 13 12 11 11 11 11 11 12 14 13 10 11 11 10 8
5 7 9 10 10 11 11 12 16 19 16 15 16 19 19 20 20 21 22 22 22 22 22 21 22 23 23 24 24 24 23 23 22 22 22 22 22 21 21 21 23 25 26 26 26 26 25 26 27 28 28 30 28 27 27 26 26 26 25 24 22 20 18 17 17 15 16 15 15 14 14 12 12 12 11 12 12 12 13 14 13 12 9 7 8
6 8 8 10 11 11 11 13 20 19 17 17 17 19 20 20 20 20 21 22 23 23 23 23 23 24 24 24 23 22 23 23 22 22 23 22 22 23 21 21 23 24 25 25 25 25 25 26 26 27 28 28 27 27 26 26 26 26 26 25 24 21 18 17 17 16 16 16 17 17 17 16 14 14 16 16 12 12 12 14 14 11 11 11 9
6 7 8 10 10 10 12 19 22 17 17 15 17 20 19 18 19 20 20 21 22 23 25 25 24 25 24 24 23 22 22 22 21 22 22 22 22 23 22 22 23 23 24 25 24 24 25 26 26 26 27 28 28 27 26 26 25 25 25 25 24 22 19 18 17 16 17 20 20 21 20 20 19 19 14 13 13 15 13 11 11 11 10 12 8
6 6 8 9 10 11 17 21 17 15 14 15 19 21 19 17 18 19 20 20 20 21 24 26 26 25 25 25 25 22 21 20 20 21 22 23 22 22 23 23 24 24 24 24 24 24 25 26 26 27 27 27 28 27 26 26 25 26 25 25 24 22 20 19 18 19 21 21 21 21 21 20 19 18 18 15 14 13 14 13 12 13 12 10 10
5 7 8 9 10 13 19 15 15 14 14 15 20 21 17 17 18 18 18 19 20 21 23 24 24 24 25 26 25 23 22 21 21 23 24 24 24 25 24 25 25 25 24 24 24 25 25 25 25 26 27 30 27 29 27 27 26 25 25 25 24 23 21 20 21 21 21 21 21 20 21 20 19 18 18 16 16 16 15 12 13 12 11 11 11
6 7 7 9 12 18 18 15 14 14 14 16 20 18 15 18 17 16 16 18 19 20 20 23 26 25 25 24 23 23 22 22 22 23 24 24 25 26 26 25 25 25 25 24 25 25 26 26 26 27 27 28 28 29 28 28 26 25 24 24 25 25 24 23 22 22 22 21 20 20 20 20 19 18 18 16 16 16 15 15 13 12 11 11 11
7 7 9 11 17 18 13 12 16 15 17 18 16 16 22 20 15 14 15 17 18 19 20 23 25 25 24 23 22 21 21 21 22 22 22 22 24 26 25 24 25 24 25 26 26 24 24 24 25 26 28 29 30 30 29 27 26 26 24 25 25 25 24 23 23 22 22 22 21 20 20 20 20 19 18 17 18 17 16 16 14 13 13 11 11
7 9 11 15 15 13 15 16 15 17 16 17 19 20 18 14 12 14 15 16 18 20 22 24 24 22 22 21 20 20 20 20 21 21 21 22 23 25 26 26 26 25 25 25 25 25 25 25 26 28 29 30 31 31 29 27 27 27 26 25 25 24 23 23 23 22 22 22 21 21 21 21 20 20 19 18 18 17 17 16 16 15 15 14 13
9 11 13 13 13 13 14 16 16 16 16 17 18 15 12 12 15 17 18 19 21 21 22 22 23 21 20 20 19 19 19 19 19 20 21 22 24 25 25 25 25 25 26 24 25 28 27 26 26 28 30 30 31 31 30 29 28 27 26 26 25 24 23 23 23 23 23 22 22 22 21 22 21 21 20 19 18 16 16 16 16 16 16 15 13
11 13 11 14 12 12 15 15 15 16 17 16 15 15 16 18 18 18 18 18 20 20 19 19 19 19 18 18 18 17 16 16 17 16 20 22 24 24 25 26 24 25 26 25 28 28 30 29 30 29 30 30 30 30 30 29 28 27 26 25 25 24 23 23 23 23 23 23 22 22 22 22 21 21 20 20 19 18 16 15 16 17 16 15 14
12 13 13 11 13 15 15 15 15 15 15 15 16 17 17 17 17 18 18 18 18 18 17 18 18 18 18 18 17 16 15 14 17 18 19 22 23 24 25 26 26 27 28 28 30 31 30 30 30 30 30 30 30 30 30 29 29 27 26 25 25 24 23 23 23 22 22 22 22 21 22 22 21 21 21 21 20 20 19 17 16 16 15 14 13
12 12 12 15 14 12 13 15 15 16 16 17 15 13 12 11 11 13 15 16 16 16 17 16 15 16 16 15 14 12 14 15 17 19 20 22 24 24 25 26 28 28 29 30 30 30 30 29 29 30 30 29 29 30 30 30 30 30 28 26 24 24 24 23 23 22 22 21 21 22 21 21 21 21 21 22 21 21 20 18 19 18 17 15 13
10 12 14 13 15 14 13 14 14 15 13 12 11 12 13 13 12 11 10 12 13 15 15 16 15 14 12 12 13 15 17 18 20 20 20 21 23 26 27 27 27 28 28 29 29 30 30 31 30 31 30 28 28 29 31 31 31 31 30 26 25 24 24 23 23 22 21 21 20 20 20 21 21 21 21 21 21 21 20 19 19 19 19 18 18
12 12 13 14 14 15 13 14 14 12 11 11 12 13 12 13 12 12 12 11 11 13 13 12 12 13 15 17 18 18 19 20 20 20 19 20 25 26 26 27 27 27 28 28 29 29 30 31 30 31 31 31 30 30 31 31 30 30 30 29 25 24 23 23 23 22 21 20 20 19 19 19 20 21 21 21 20 20 20 20 19 19 19 19 18
11 12 13 12 15 13 15 13 11 10 10 11 12 12 10 8 6 7 8 9 10 10 11 12 13 12 12 12 14 14 16 16 18 19 21 22 25 25 27 28 27 28 28 28 29 28 29 31 31 31 31 31 30 28 30 30 30 30 30 29 26 24 23 23 23 22 21 20 20 19 18 18 19 20 20 20 20 20 19 19 18 18 17 18 18
11 12 11 14 13 15 12 10 9 10 11 11 11 9 7 5 2 4 8 9 11 13 13 11 11 12 13 15 15 16 17 17 18 20 21 24 26 25 26 28 28 27 28 27 27 28 29 30 30 30 30 30 29 30 30 30 29 29 29 29 27 24 23 23 23 22 22 21 20 19 18 17 18 19 20 21 20 20 20 19 18 18 18 18 18
10 11 14 11 14 12 10 9 10 9 8 9 9 6 3 -0 1 4 9 10 9 7 7 8 10 11 13 14 15 15 15 17 18 20 23 25 26 25 25 26 27 27 28 27 27 29 29 29 29 30 29 29 29 30 29 29 29 28 28 27 27 24 23 22 22 22 21 21 20 19 18 18 18 18 21 22 21 20 20 19 18 18 18 19 19
13 13 11 15 11 9 8 8 7 6 5 8 7 3 0 1 4 8 9 6 5 6 7 9 11 12 13 12 12 14 16 17 18 21 22 24 25 26 25 27 28 27 27 26 28 28 29 29 30 29 29 29 28 28 28 28 27 27 27 26 26 22 22 21 21 21 21 21 20 19 19 18 18 18 21 22 22 21 19 19 18 18 18 18 17
10 11 14 11 10 8 8 7 6 5 7 7 3 -2 0 5 7 7 5 5 3 5 8 10 11 11 10 11 14 16 18 19 21 21 22 24 25 26 26 28 28 26 27 28 28 29 29 29 30 29 29 28 28 28 27 27 27 27 27 26 23 22 21 20 20 21 20 20 20 21 20 18 18 18 22 23 22 20 18 18 18 17 16 16 16
10 13 10 9 9 8 7 6 5 6 4 0 -1 0 5 7 5 4 3 1 3 6 9 10 11 10 10 12 14 16 18 19 20 22 24 26 27 27 26 26 27 28 28 28 28 28 28 29 29 29 29 28 28 27 26 26 26 26 25 27 22 21 20 19 19 19 20 19 20 21 21 19 18 19 22 23 23 20 17 17 17 16 15 14 15
12 10 10 8 6 6 6 4 4 2 -1 -3 1 3 5 3 1 1 1 2 4 7 9 10 9 8 9 11 13 15 17 20 22 24 25 27 28 28 27 28 27 28 28 27 28 29 28 28 29 29 28 27 26 25 25 25 25 26 26 26 22 20 19 19 18 18 18 18 19 19 20 21 21 21 22 24 24 22 17 17 16 14 14 14 15
10 8 11 6 7 8 5 4 2 -0 -2 -1 2 4 3 -0 -1 -1 2 4 6 6 6 7 7 9 9 9 11 14 16 19 23 24 27 28 28 27 27 28 28 28 28 28 28 28 28 28 28 28 27 26 25 24 24 25 25 25 26 26 22 21 20 18 18 17 17 17 18 18 19 21 21 21 22 24 24 22 19 17 16 14 14 15 15
8 8 6 5 5 4 1 -1 -0 -1 -1 0 1 0 -2 -2 -1 0 2 4 4 3 5 6 6 6 7 9 11 13 17 19 23 26 28 27 27 28 28 28 27 27 28 28 28 28 27 27 26 25 25 24 24 24 23 23 24 25 26 26 22 21 20 18 17 16 16 17 17 17 18 20 21 21 22 23 24 23 21 15 15 17 18 18 13
4 4 5 5 3 0 -1 -1 -0 -3 -5 -6 -4 -2 -2 -1 -0 1 3 4 3 4 5 6 6 7 9 10 12 14 16 19 24 27 27 26 26 27 28 28 28 28 27 27 27 26 26 24 23 22 22 22 22 22 23 23 23 25 26 27 24 22 23 19 17 16 16 16 17 18 19 21 22 22 23 23 24 23 19 16 19 18 19 18 12
1 2 4 3 -1 -1 -1 -0 -3 -6 -7 -5 -3 -2 -1 1 -0 2 3 3 2 3 5 6 7 7 7 10 12 14 16 19 24 26 26 27 27 27 27 27 27 27 26 25 25 24 22 21 21 20 20 20 21 21 22 23 22 24 25 27 26 24 23 19 18 17 17 17 17 17 19 22 22 23 23 23 23 22 16 19 20 20 19 13 3
2 2 3 2 -0 -1 -1 -3 -6 -8 -8 -5 -4 -2 -0 0 0 3 5 2 3 5 6 6 6 6 8 9 11 14 17 20 25 27 27 26 26 27 26 27 27 26 25 24 23 22 20 19 19 18 18 19 19 20 20 22 23 23 25 27 26 25 23 22 18 18 17 17 18 20 21 22 22 22 22 22 23 22 21 21 21 19 13 5 4
0 1 1 -1 -0 -1 -1 -4 -7 -8 -6 -4 -5 -4 -1 -1 2 3 1 3 4 5 5 5 5 6 7 9 12 14 18 21 25 27 27 26 26 27 27 26 26 25 25 23 22 20 19 18 18 17 18 18 18 19 19 20 22 22 23 25 27 25 24 23 20 18 19 20 21 21 22 22 22 21 20 20 19 20 22 21 18 13 4 4 2
-0 1 0 -1 0 0 -3 -5 -7 -6 -6 -5 -4 -2 -0 0 3 1 2 4 4 4 3 4 4 5 6 9 10 12 14 17 20 23 25 26 27 27 27 26 25 24 24 22 20 19 18 18 17 17 17 17 17 17 18 19 21 21 22 23 25 23 24 23 20 19 20 19 20 20 21 22 21 22 21 21 18 16 9 4 2 1 1 1 1
1 0 -1 -1 -2 -1 -4 -6 -6 -6 -6 -5 -2 -2 -1 1 2 2 3 3 3 3 2 2 3 4 5 7 9 13 14 14 16 19 22 25 26 27 27 26 25 25 23 21 20 19 18 18 17 17 17 16 16 16 17 18 19 20 21 22 24 23 21 19 18 18 19 20 20 21 20 15 12 9 4 3 0 -1 -2 -2 -3 -3 -3 -2 2
0 -2 -1 -2 -2 -2 -5 -5 -5 -5 -3 -4 -3 -3 -2 -0 1 2 3 2 1 2 2 2 2 2 3 6 8 9 10 12 13 15 18 22 25 27 27 27 27 25 24 22 21 21 20 20 19 18 17 16 16 16 17 19 19 21 21 21 23 21 19 18 19 21 16 11 10 10 9 8 8 7 3 1 -1 -3 -6 -6 -4 -4 -2 -0 -2
-1 -4 -4 -4 -2 -3 -5 -4 -5 -5 -3 -3 -4 -2 -1 1 1 2 2 1 1 1 0 0 1 1 2 4 6 7 9 10 11 12 15 18 23 28 28 27 26 25 24 24 24 23 23 21 20 19 19 17 16 17 19 21 21 22 22 23 23 22 21 20 21 20 14 10 10 9 8 6 4 3 2 0 -1 -3 -6 -6 -5 -0 -6 -5 -6
-5 -4 -5 -5 -5 -4 -4 -4 -4 -3 -4 -4 -2 -1 -1 -0 1 2 2 2 1 -0 -1 -1 -1 -1 1 3 5 6 7 8 8 10 12 15 19 24 26 27 25 23 23 23 23 23 23 24 22 20 20 21 20 19 20 22 22 22 23 24 24 24 23 23 21 15 12 10 8 6 5 4 4 3 2 1 -1 -3 -4 -5 -5 -7 -8 -5 -7